Regional Weather Roundup
Issued by NWS

Home | Current Version | Previous Version | Graphics & Text | Print | Product List | Glossary On
Versions: 1 2 3 4 5 6 7 8 9 10 11 12 13 14 15 16 17 18 19 20 21 22 23 24 25 26 27 28 29 30 31 32 33 34 35 36 37 38 39 40 41 42 43 44 45 46 47 48 49 50
012
ASUS43 KLMK 300510
RWRKY
KENTUCKY REGIONAL WEATHER ROUNDUP
NATIONAL WEATHER SERVICE LOUISVILLE KY
100 AM EDT MON MAY 30 2016

NOTE "FAIR" INDICATES FEW OR NO CLOUDS BELOW 12,000 FEET
WITH NO SIGNIFICANT WEATHER AND/OR OBSTRUCTIONS TO VISIBILITY.

KYZ001>023-026-027-061>063-070>075-300600-
WESTERN AND SOUTH CENTRAL KENTUCKY

CITY           SKY/WX    TMP DP  RH WIND       PRES   REMARKS
PADUCAH        CLEAR     65  61  87 CALM      30.05R
HENDERSON      MOCLDY    68  61  77 CALM      30.03S
OWENSBORO      MOCLDY    71  69  93 CALM      30.04F
HOPKINSVILLE   PTCLDY    71  66  82 W3        30.04S
BOWLING GREEN  MOCLDY    71  65  81 CALM      30.04F
GLASGOW        CLOUDY    67  67  99 CALM      30.04S
$$

KYZ024-025-028>034-038-045-046-053-300600-
NORTH CENTRAL KENTUCKY

CITY           SKY/WX    TMP DP  RH WIND       PRES   REMARKS
LOUISVILLE/SDF MOCLDY    72  59  63 W6        30.02S
LOUISVILLE/LOU PTCLDY    74  60  61 CALM      30.03S
FORT KNOX      PTCLDY    66  61  85 W6        30.02F
$$

KYZ035>037-039>044-047>052-055>060-089>105-300600-
NORTHEAST KENTUCKY

CITY           SKY/WX    TMP DP  RH WIND       PRES   REMARKS
LEXINGTON      CLEAR     71  65  81 SW3       30.04S
COVINGTON      PTCLDY    67  65  93 SE3       30.03R
FRANKFORT      CLEAR     72  62  71 NW3       30.02S
$$

KYZ054-064>069-076>088-106>120-300600-
SOUTHEAST KENTUCKY

CITY           SKY/WX    TMP DP  RH WIND       PRES   REMARKS
JACKSON        CLEAR     70  62  76 CALM      30.06S
LONDON         CLEAR     67  63  87 CALM      30.06S
SOMERSET       CLEAR     64  64 100 CALM      30.06F
MIDDLESBORO    CLEAR     62  62 100 CALM      30.09S
MONTICELLO     PTCLDY    67  66  97 NE8       30.07S FOG
$$





USA.gov is the U.S. government's official web portal to all federal, state and local government web resources and services.